CZ-4C DEB, 43281

Orbit data source: Space-Track

CZ-4C DEB, 43281 is space debris in LEO originally from a launch on Tue, 10 Apr 2018 UTC launched from the Jiuquan Satellite Launch Center, China (JSC). Debris objects in space refer to the collection of defunct objects orbiting the Earth. Examples of debris include non-operational satellites, rocket bodies, and fragments generated from explosions, collisions, or faulty payload assembly.

Loading next visibility...
CZ-4C DEB details
Identifier
43281, 2018-034G
Orbit
LEO
Last TLE update9 hours ago
Origin
Flag of CNCNSA (CN / PRC)
ManufacturerUnknown
MissionSpacecraft
Bus & MotorUnknown
MassUnknown
Launch date (UTC)
2018-04-10 (7 years ago)
Launch vehicleUnknown
Launch site
Jiuquan Satellite Launch Center, China (JSC)
Object type
Payload
Rocket body
Debris
Shape & HBRUnknown
Radar Cross SectionLarge (>1 m²)

Expand to show TLE details & history

TLE from 9 hours ago
0 CZ-4C DEB
1 43281U 18034G   24361.29277862  .00000120  00000-0  30828-3 0  9990
2 43281  63.4009  45.3558 0224059   6.3587 354.0199 13.44576332265342
Epoch: 2024-12-26T07:01Z
Definitive object data (Epoch: 2024-12-26T07:01:36.072Z)
Latitude-0.00001°
Longitude-155.31876°
Altitude927.602 km
Speed7.47 km/s
True Right ascension03h 01m 25s
True Declination0° 00' 00"
Sunlit
Object was in full shadow at TLE epoch
Visualization TLE readout
Latitude-62.84671°
Longitude127.52895°
Altitude1,111.778 km
Speed7.298 km/s
Apparent Right ascension00h 55m 02s
Apparent Declination-58° 11' 41"
Sunlit
Object is in daylight
Visualization observer readout
Local Sidereal Time14:54:51
Azimuth143.744° SSE
Elevation-63.579°
Doppler factor1
Orbital elements
Apogee altitude1,258.465 km
Perigee altitude923.754 km
Semi-major axis7,469.246 km
Eccentricity0.0224059
Inclination63.4009°
RAAN45.3558°
Arg. of periapsis6.3587°
True anomaly353.74475°
Mean anomaly354.0199°
Eccentric anomaly353.88311°
Mean motion3.36223 °/min
BSTAR0.00030828
Orbital period107.07 mins
Loading maneuver chart data...
Loading historical data...
Loading historical data...
Loading historical data...
Loading historical data...
Loading historical data...
Loading historical data...
Loading historical data...

CZ-4C DEB Visibility forecast

Observer location: undefined°, undefined

Span
Click to sort rows by Start time (UTC) header in descending order
Start Az.
Max El. time (UTC)
Max El. Az.
Max El.
End time (UTC)
End Az.
11 mins2024-12-27 04:33:49.694Z194.149° SSW2024-12-27 04:38:49.694Z126.983° SE40.403°2024-12-27 04:44:49.694Z41.849° NE
9 mins2024-12-27 06:25:49.694Z267.465° W2024-12-27 06:29:49.694Z316.19° NNW25.64°2024-12-27 06:34:49.694Z13.767° NNE
11 mins2024-12-27 12:05:49.694Z348.248° N2024-12-27 12:10:49.694Z42.053° NE26.389°2024-12-27 12:16:49.694Z98.239° ESE
13 mins2024-12-27 13:55:49.694Z320.944° NNW2024-12-27 14:01:49.694Z250.671° W43.511°2024-12-27 14:08:49.694Z158.475° S
|